Garden City, GA

1:14 AM EDT on September 01, 2016 (GMT -0400)
Savannah International

Weather History for KSAV - November, 2012

Change the Weather History Date:

Wednesday, November 28, 2012

  Actual Average Record
Temperature  
Mean Temperature 48 °F 56 °F  
Max Temperature 55 °F 67 °F 83 °F (1990)
Min Temperature 40 °F 45 °F 24 °F (1956)
Degree Days  
Heating Degree Days 17 10  
Month to date heating degree days 277 189  
Since 1 July heating degree days 311 246  
Cooling Degree Days 0 1  
Month to date cooling degree days 8 38  
Year to date cooling degree days 2664 2450  
Moisture  
Dew Point 48 °F    
Average Humidity 89    
Maximum Humidity 100    
Minimum Humidity 77    
Precipitation  
Precipitation T in 0.08 in 1.43 in (1914)
Month to date precipitation 0.48 2.20  
Year to date precipitation 38.30 44.84  
Snow  
Snow 0.00 in 0.00 in - ()
Month to date snowfall 0.0  
Since 1 July snowfall 0.0 0.0  
Since 1 September snowfall 0.0 0.0  
Snow Depth 0.00 in    
Sea Level Pressure  
Sea Level Pressure 30.29 in    
Wind  
Wind Speed 4 mph (North)    
Max Wind Speed 13 mph    
Max Gust Speed 15 mph    
Visibility 4 miles    
Events Fog , Rain    
T = Trace of Precipitation, MM = Missing Value Source: NWS Daily Summary

Daily Weather History Graph

Daily Weather History Graph

Search for Another Location

Airport or City:

Trip Planner

Search our weather history database for the weather conditions in past years. The results will help you decide how hot, cold, wet, or windy it might be!

Date:

Astronomy

Nov. 28, 2012 Rise Set
Actual Time 7:05 AM EST 5:20 PM EST
Civil Twilight 6:39 AM EST 5:46 PM EST
Nautical Twilight 6:08 AM EST 6:16 PM EST
Astronomical Twilight 5:39 AM EST 6:46 PM EST
Moon 5:34 PM EST (11/28) 7:01 AM EST (11/28)
Length of Visible Light 11h 07m
Length of Day
10h 14m
Full, 100% of the Moon is Illuminated
Nov 28
Full
Dec 6
Last Quarter
Dec 13
New
Dec 20
First Quarter
Dec 28
Full

Hourly Weather History & Observations

Time (EST) Temp. Dew Point Humidity Pressure Visibility Wind Dir Wind Speed Gust Speed Precip Events Conditions
12:04 AM 51.8 °F 50.0 °F 94% 30.19 in 1.5 mi Calm Calm - N/A   Overcast
12:37 AM 53.6 °F 51.8 °F 94% 30.18 in 2.0 mi WNW 3.5 mph - N/A   Overcast
12:53 AM 53.1 °F 52.0 °F 96% 30.18 in 2.0 mi WNW 3.5 mph - N/A   Overcast
1:53 AM 53.1 °F 52.0 °F 96% 30.18 in 2.0 mi North 4.6 mph - N/A   Overcast
2:32 AM 53.6 °F 51.8 °F 94% 30.19 in 2.0 mi North 8.1 mph - N/A   Overcast
2:53 AM 53.1 °F 52.0 °F 96% 30.18 in 2.0 mi NNW 5.8 mph - N/A   Overcast
3:45 AM 51.8 °F 51.8 °F 100% 30.21 in 1.5 mi NNW 6.9 mph - N/A   Overcast
3:53 AM 52.0 °F 51.1 °F 97% 30.21 in 1.5 mi North 9.2 mph - N/A   Overcast
4:53 AM 52.0 °F 51.1 °F 97% 30.21 in 1.5 mi NNW 4.6 mph - N/A   Overcast
5:39 AM 51.8 °F 50.0 °F 94% 30.22 in 3.0 mi NW 6.9 mph - N/A   Overcast
5:53 AM 52.0 °F 50.0 °F 93% 30.23 in 3.0 mi NW 3.5 mph - N/A   Overcast
6:20 AM 51.8 °F 51.8 °F 100% 30.23 in 4.0 mi North 6.9 mph - N/A   Overcast
6:53 AM 52.0 °F 50.0 °F 93% 30.25 in 5.0 mi NNW 6.9 mph - N/A   Overcast
7:53 AM 53.1 °F 51.1 °F 93% 30.28 in 3.0 mi North 3.5 mph - N/A   Overcast
8:42 AM 51.8 °F 50.0 °F 94% 30.30 in 2.0 mi NNE 4.6 mph - 0.00 in Rain Light Rain
8:53 AM 52.0 °F 51.1 °F 97% 30.31 in 2.0 mi North 8.1 mph - 0.00 in Rain Light Rain
9:40 AM 51.8 °F 51.8 °F 100% 30.32 in 1.5 mi North 5.8 mph - 0.00 in   Overcast
9:53 AM 52.0 °F 50.0 °F 93% 30.32 in 1.5 mi North 6.9 mph - 0.00 in   Overcast
10:19 AM 51.8 °F 50.0 °F 94% 30.33 in 4.0 mi North 10.4 mph - N/A   Overcast
10:53 AM 52.0 °F 50.0 °F 93% 30.34 in 4.0 mi North 6.9 mph - N/A   Overcast
11:53 AM 53.1 °F 48.9 °F 86% 30.34 in 7.0 mi North 8.1 mph - N/A   Overcast
12:31 PM 51.8 °F 48.2 °F 88% 30.33 in 6.0 mi North 12.7 mph - N/A   Overcast
12:53 PM 52.0 °F 48.9 °F 89% 30.32 in 6.0 mi North 4.6 mph - N/A   Overcast
1:18 PM 51.8 °F 48.2 °F 88% 30.32 in 7.0 mi North 9.2 mph - N/A   Overcast
1:53 PM 52.0 °F 48.0 °F 86% 30.31 in 6.0 mi North 8.1 mph - N/A   Overcast
2:17 PM 51.8 °F 48.2 °F 88% 30.31 in 6.0 mi NE 8.1 mph - N/A   Overcast
2:43 PM 53.6 °F 48.2 °F 82% 30.30 in 6.0 mi NE 4.6 mph - N/A   Haze
2:53 PM 54.0 °F 48.0 °F 80% 30.30 in 7.0 mi Calm Calm - N/A   Mostly Cloudy
3:53 PM 54.0 °F 46.9 °F 77% 30.30 in 8.0 mi Calm Calm - N/A   Mostly Cloudy
4:28 PM 53.6 °F 46.4 °F 77% 30.31 in 8.0 mi Calm Calm - N/A   Overcast
4:53 PM 54.0 °F 48.0 °F 80% 30.32 in 7.0 mi West 4.6 mph - N/A   Overcast
5:53 PM 52.0 °F 48.0 °F 86% 30.32 in 8.0 mi West 3.5 mph - N/A   Overcast
6:53 PM 51.1 °F 48.0 °F 89% 30.35 in 8.0 mi Calm Calm - N/A   Overcast
7:53 PM 48.0 °F 45.0 °F 89% 30.36 in 6.0 mi Calm Calm - N/A   Partly Cloudy
8:53 PM 46.9 °F 45.0 °F 93% 30.37 in 4.0 mi Calm Calm - N/A   Clear
9:53 PM 44.1 °F 42.1 °F 93% 30.38 in 5.0 mi Calm Calm - N/A Fog Shallow Fog
10:08 PM 42.8 °F 42.8 °F 100% 30.39 in 2.0 mi Calm Calm - N/A Fog Shallow Fog
10:53 PM 42.1 °F 41.0 °F 96% 30.39 in 4.0 mi Calm Calm - N/A   Scattered Clouds
11:39 PM 41.0 °F 39.2 °F 93% 30.39 in 1.0 mi Calm Calm - N/A   Mist
11:46 PM 39.2 °F 39.2 °F 100% 30.39 in 0.5 mi Calm Calm - N/A Fog Fog
11:53 PM 39.9 °F 39.0 °F 97% 30.39 in 0.2 mi Calm Calm - N/A Fog Fog